| time (UTC) | temp F | wind direction | speed MPH | gust MPH | rain 1hr in | rain 24hr in | rain mn in | humidity % | barometer mb |
| 20260904080029 | 66 | 26 | 0.0 | 3.0 | 0.05 | 0.54 | 0.30 | 95 | 1013.9 |
| 20260904074535 | 66 | 16 | 0.0 | 0.0 | 0.06 | 0.56 | 0.29 | 95 | 1013.8 |
| 20260904073018 | 67 | 16 | 0.0 | 0.0 | 0.07 | 0.57 | 0.28 | 95 | 1013.7 |
| 20260904071523 | 67 | 16 | 0.0 | 0.0 | 0.06 | 0.57 | 0.26 | 95 | 1013.7 |
| 20260904070028 | 67 | 16 | 0.0 | 0.0 | 0.07 | 0.58 | 0.25 | 95 | 1013.6 |
| 20260904064530 | 67 | 16 | 0.0 | 0.0 | 0.07 | 0.60 | 0.23 | 95 | 1013.7 |
| 20260904063038 | 67 | 16 | 0.0 | 0.0 | 0.07 | 0.61 | 0.21 | 95 | 1013.7 |
| 20260904061526 | 68 | 16 | 0.0 | 0.0 | 0.08 | 0.63 | 0.20 | 95 | 1013.7 |
| 20260904060027 | 68 | 30 | 0.0 | 0.0 | 0.09 | 0.64 | 0.18 | 95 | 1013.9 |
| 20260904054530 | 68 | 9 | 0.0 | 1.0 | 0.09 | 0.65 | 0.16 | 94 | 1013.9 |
| 20260904053035 | 68 | 9 | 0.0 | 2.0 | 0.09 | 0.67 | 0.14 | 94 | 1014.1 |
| 20260904051553 | 69 | 352 | 0.0 | 0.0 | 0.10 | 0.68 | 0.12 | 94 | 1014.2 |
| 20260904050003 | 69 | 352 | 0.0 | 0.0 | 0.09 | 0.69 | 0.09 | 94 | 1014.2 |
| 20260904044504 | 69 | 61 | 0.0 | 2.0 | 0.08 | 0.71 | 0.07 | 94 | 1014.5 |
| 20260904043004 | 69 | 178 | 0.0 | 3.0 | 0.07 | 0.73 | 0.05 | 94 | 1014.5 |
| 20260904041503 | 70 | 13 | 0.0 | 3.0 | 0.04 | 0.74 | 0.02 | 94 | 1014.5 |
| 20260904040018 | 70 | 40 | 0.0 | 0.0 | 0.02 | 0.77 | 0.00 | 94 | 1014.6 |
| 20260904034507 | 70 | 346 | 0.0 | 0.0 | 0.01 | 0.80 | 0.76 | 94 | 1014.2 |
| 20260904033007 | 70 | 346 | 0.0 | 0.0 | 0.00 | 0.83 | 0.75 | 93 | 1014.2 |
| 20260904031508 | 70 | 346 | 0.0 | 0.0 | 0.00 | 0.87 | 0.75 | 94 | 1014.2 |
| 20260904030008 | 70 | 346 | 0.0 | 0.0 | 0.00 | 0.92 | 0.75 | 94 | 1014.2 |
| 20260904024503 | 70 | 346 | 0.0 | 0.0 | 0.00 | 0.97 | 0.75 | 94 | 1014.2 |
| 20260904023008 | 71 | 346 | 0.0 | 0.0 | 0.00 | 1.02 | 0.75 | 94 | 1014.2 |
| 20260904021508 | 71 | 346 | 0.0 | 0.0 | 0.00 | 1.07 | 0.75 | 93 | 1014.3 |
| 20260904020008 | 71 | 346 | 0.0 | 0.0 | 0.00 | 1.13 | 0.75 | 93 | 1014.9 |
| 20260904014509 | 71 | 346 | 0.0 | 0.0 | 0.00 | 1.14 | 0.75 | 93 | 1014.9 |
| 20260904013015 | 71 | 328 | 0.0 | 1.0 | 0.00 | 1.16 | 0.75 | 93 | 1015.0 |
| 20260904011508 | 71 | 274 | 0.0 | 0.0 | 0.00 | 1.16 | 0.75 | 93 | 1014.9 |
| 20260904010033 | 71 | 274 | 0.0 | 0.0 | 0.00 | 1.16 | 0.75 | 92 | 1015.0 |
| 20260904004513 | 71 | 274 | 0.0 | 0.0 | 0.00 | 1.17 | 0.75 | 91 | 1014.8 |
| 20260904003019 | 72 | 274 | 0.0 | 0.0 | 0.00 | 1.17 | 0.75 | 91 | 1014.6 |
| 20260904001513 | 72 | 274 | 0.0 | 0.0 | 0.00 | 1.17 | 0.75 | 90 | 1014.5 |
| 20260904000019 | 73 | 274 | 0.0 | 0.0 | 0.00 | 1.17 | 0.75 | 88 | 1014.4 |
| 20260903234513 | 73 | 274 | 0.0 | 0.0 | 0.00 | 1.17 | 0.75 | 87 | 1014.4 |
| 20260903233017 | 74 | 274 | 0.0 | 0.0 | 0.00 | 1.17 | 0.75 | 86 | 1014.5 |
| 20260903231512 | 75 | 274 | 0.0 | 0.0 | 0.00 | 1.17 | 0.75 | 85 | 1014.5 |
| 20260903230008 | 76 | 274 | 0.0 | 0.0 | 0.00 | 1.17 | 0.75 | 84 | 1014.6 |
| 20260903224511 | 76 | 304 | 0.0 | 0.0 | 0.00 | 1.17 | 0.75 | 83 | 1014.3 |
| 20260903223018 | 77 | 304 | 0.0 | 0.0 | 0.00 | 1.17 | 0.75 | 81 | 1014.1 |
| 20260903221515 | 78 | 304 | 0.0 | 0.0 | 0.00 | 1.17 | 0.75 | 79 | 1014.0 |
| 20260903220017 | 78 | 304 | 0.0 | 0.0 | 0.00 | 1.17 | 0.75 | 78 | 1013.9 |
| 20260903214514 | 78 | 301 | 0.0 | 1.0 | 0.00 | 1.17 | 0.75 | 78 | 1013.9 |
| 20260903213018 | 79 | 193 | 0.0 | 1.0 | 0.00 | 1.17 | 0.75 | 76 | 1014.1 |
| 20260903211516 | 80 | 245 | 0.0 | 2.0 | 0.00 | 1.17 | 0.75 | 74 | 1014.1 |
| 20260903210020 | 80 | 300 | 0.0 | 2.0 | 0.00 | 1.17 | 0.75 | 74 | 1014.3 |
| 20260903204525 | 80 | 209 | 0.0 | 4.0 | 0.00 | 1.17 | 0.75 | 73 | 1014.4 |
| 20260903203013 | 78 | 238 | 0.0 | 3.0 | 0.00 | 1.17 | 0.75 | 77 | 1014.5 |
| 20260903201515 | 78 | 134 | 0.0 | 4.0 | 0.00 | 1.17 | 0.75 | 76 | 1014.7 |
| 20260903200024 | 79 | 224 | 0.0 | 3.0 | 0.00 | 1.17 | 0.75 | 74 | 1014.7 |
| 20260903194524 | 80 | 217 | 3.0 | 8.0 | 0.00 | 1.20 | 0.75 | 72 | 1014.4 |
| 20260903193007 | 80 | 244 | 0.0 | 4.0 | 0.00 | 1.21 | 0.75 | 73 | 1014.6 |
| 20260903191514 | 79 | 346 | 0.0 | 4.0 | 0.00 | 1.23 | 0.75 | 75 | 1014.8 |
| 20260903190020 | 77 | 242 | 0.0 | 3.0 | 0.00 | 1.24 | 0.75 | 79 | 1015.2 |
| 20260903184525 | 78 | 168 | 0.0 | 3.0 | 0.00 | 1.25 | 0.75 | 78 | 1015.3 |
| 20260903183024 | 78 | 194 | 0.0 | 4.0 | 0.00 | 1.27 | 0.75 | 75 | 1015.3 |
| 20260903181510 | 78 | 193 | 0.0 | 4.0 | 0.00 | 1.28 | 0.75 | 75 | 1015.5 |
| 20260903180024 | 79 | 213 | 0.0 | 3.0 | 0.00 | 1.30 | 0.75 | 76 | 1015.5 |
| 20260903174528 | 77 | 260 | 0.0 | 1.0 | 0.00 | 1.31 | 0.75 | 79 | 1015.5 |
| 20260903173027 | 77 | 232 | 0.0 | 7.0 | 0.00 | 1.33 | 0.75 | 78 | 1015.6 |
| 20260903171527 | 78 | 277 | 0.0 | 4.0 | 0.00 | 1.35 | 0.75 | 79 | 1015.6 |
| 20260903170019 | 77 | 237 | 1.0 | 5.0 | 0.00 | 1.36 | 0.75 | 78 | 1015.8 |
| 20260903164517 | 76 | 185 | 0.0 | 4.0 | 0.00 | 1.38 | 0.75 | 81 | 1015.9 |
| 20260903163023 | 76 | 127 | 0.0 | 5.0 | 0.00 | 1.40 | 0.75 | 82 | 1015.9 |
| 20260903161531 | 75 | 304 | 0.0 | 3.0 | 0.00 | 1.42 | 0.75 | 85 | 1016.2 |
| 20260903160052 | 74 | 164 | 0.0 | 4.0 | 0.00 | 1.44 | 0.75 | 86 | 1016.2 |
| 20260903154519 | 72 | 241 | 0.0 | 3.0 | 0.00 | 1.46 | 0.75 | 88 | 1016.5 |
| 20260903153024 | 71 | 276 | 0.0 | 2.0 | 0.00 | 1.49 | 0.75 | 89 | 1016.7 |
| 20260903151530 | 70 | 240 | 0.0 | 3.0 | 0.00 | 1.52 | 0.75 | 90 | 1016.7 |
| 20260903150032 | 70 | 256 | 0.0 | 3.0 | 0.00 | 1.54 | 0.75 | 93 | 1016.6 |
| 20260903144528 | 69 | 229 | 0.0 | 3.0 | 0.00 | 1.57 | 0.75 | 95 | 1016.5 |
| 20260903143024 | 68 | 290 | 0.0 | 4.0 | 0.00 | 1.60 | 0.75 | 96 | 1016.5 |
| 20260903141527 | 68 | 252 | 1.0 | 4.0 | 0.00 | 1.62 | 0.75 | 96 | 1016.6 |
| 20260903140007 | 68 | 251 | 0.0 | 3.0 | 0.00 | 1.62 | 0.75 | 96 | 1016.7 |
| 20260903134513 | 68 | 202 | 1.0 | 3.0 | 0.00 | 1.62 | 0.75 | 96 | 1016.4 |
| 20260903133019 | 68 | 232 | 0.0 | 3.0 | 0.00 | 1.62 | 0.75 | 97 | 1016.2 |
| 20260903131523 | 68 | 229 | 0.0 | 3.0 | 0.01 | 1.62 | 0.75 | 97 | 1016.2 |
| 20260903130004 | 67 | 242 | 0.0 | 3.0 | 0.01 | 1.62 | 0.75 | 97 | 1016.5 |
| 20260903124506 | 67 | 205 | 0.0 | 2.0 | 0.02 | 1.62 | 0.75 | 97 | 1016.5 |
| 20260903123010 | 67 | 229 | 0.0 | 1.0 | 0.03 | 1.62 | 0.75 | 97 | 1016.4 |
| 20260903121520 | 67 | 259 | 0.0 | 1.0 | 0.03 | 1.61 | 0.74 | 97 | 1016.2 |
| 20260903120024 | 66 | 259 | 0.0 | 0.0 | 0.04 | 1.61 | 0.74 | 97 | 1016.1 |
| 20260903114507 | 65 | 259 | 0.0 | 0.0 | 0.04 | 1.60 | 0.73 | 96 | 1016.0 |
| 20260903113008 | 64 | 259 | 0.0 | 0.0 | 0.04 | 1.59 | 0.72 | 96 | 1016.0 |
| 20260903111513 | 64 | 259 | 0.0 | 0.0 | 0.04 | 1.58 | 0.71 | 96 | 1015.7 |
| 20260903110027 | 64 | 259 | 0.0 | 0.0 | 0.04 | 1.57 | 0.70 | 96 | 1015.8 |
| 20260903104527 | 64 | 259 | 0.0 | 0.0 | 0.05 | 1.56 | 0.69 | 96 | 1015.8 |
| 20260903103011 | 64 | 259 | 0.0 | 0.0 | 0.05 | 1.55 | 0.68 | 96 | 1015.8 |